Location: Bord�res
(43.2000°N, 0.2167°W)
Time: 11:36:48
(UTC+00:00)

Cosmos 1844 Rocket - Pass Details

Date: 03 March 2021
Orbit: 826 x 843 km, 71.0° (Epoch: 20 April)

Event Time Altitude Azimuth Distance (km) Brightness Sun altitude
Rises 18:22:38 0° 342° (NNW) 3,374 6.0 -6.3°
Reaches altitude 10° 18:25:22 10° 353° (N) 2,436 5.2 -6.8°
Maximum altitude 18:30:17 31° 55° (NE) 1,423 3.5 -7.7°
Drops below altitude 10° 18:35:10 10° 116° (ESE) 2,426 4.5 -8.5°
Enters shadow 18:36:19 - 122° (ESE) 2,813 4.9 -8.8°
